TimePDT,TemperatureF,Dew PointF,Humidity,Sea Level PressureIn,VisibilityMPH,Wind Direction,Wind SpeedMPH,Gust SpeedMPH,PrecipitationIn,Events,Conditions,WindDirDegrees,DateUTC
12:53 AM,50.0,42.1,74,30.14,10.0,Calm,Calm,-,N/A,,Clear,0,2013-03-14 07:53:00
1:53 AM,48.9,42.1,77,30.12,10.0,SSW,4.6,-,N/A,,Clear,200,2013-03-14 08:53:00
2:53 AM,46.9,41.0,80,30.13,10.0,Calm,Calm,-,N/A,,Clear,0,2013-03-14 09:53:00
3:53 AM,46.0,41.0,83,30.11,10.0,ENE,4.6,-,N/A,,Clear,60,2013-03-14 10:53:00
4:53 AM,46.9,39.0,74,30.10,10.0,Calm,Calm,-,N/A,,Clear,0,2013-03-14 11:53:00
5:53 AM,44.1,37.9,79,30.11,10.0,Calm,Calm,-,N/A,,Clear,0,2013-03-14 12:53:00
6:53 AM,43.0,39.0,86,30.12,10.0,Calm,Calm,-,N/A,,Clear,0,2013-03-14 13:53:00
7:53 AM,43.0,39.0,86,30.12,10.0,Calm,Calm,-,N/A,,Clear,0,2013-03-14 14:53:00
8:53 AM,45.0,39.0,80,30.16,10.0,Calm,Calm,-,N/A,,Clear,0,2013-03-14 15:53:00
9:53 AM,48.2,39.2,71,30.18,10.0,Calm,Calm,-,N/A,,Clear,0,2013-03-14 16:53:00
10:53 AM,50.0,41.0,71,30.18,10.0,Calm,Calm,-,N/A,,Clear,0,2013-03-14 17:53:00
11:53 AM,55.0,42.1,62,30.17,10.0,Calm,Calm,-,N/A,,Clear,0,2013-03-14 18:53:00
12:53 PM,55.9,42.1,60,30.14,10.0,NNW,5.8,-,N/A,,Clear,330,2013-03-14 19:53:00
1:53 PM,62.1,44.1,52,30.15,10.0,NW,8.1,-,N/A,,Clear,320,2013-03-14 20:53:00
2:53 PM,64.0,43.0,46,30.14,10.0,NE,4.6,-,N/A,,Clear,40,2013-03-14 21:53:00
3:53 PM,66.9,42.1,40,30.12,10.0,Calm,Calm,-,N/A,,Clear,0,2013-03-14 22:53:00
4:53 PM,66.9,42.1,40,30.13,10.0,North,4.6,-,N/A,,Clear,10,2013-03-14 23:53:00
5:53 PM,66.9,43.0,42,30.13,10.0,North,4.6,-,N/A,,Clear,350,2013-03-15 00:53:00
6:53 PM,64.9,30.0,27,30.14,10.0,NW,8.1,-,N/A,,Clear,310,2013-03-15 01:53:00
7:53 PM,61.0,30.9,32,30.16,10.0,NNW,6.9,-,N/A,,Clear,330,2013-03-15 02:53:00
8:53 PM,55.9,33.1,42,30.18,10.0,NNW,5.8,-,N/A,,Clear,330,2013-03-15 03:53:00
9:53 PM,54.0,34.0,47,30.20,10.0,South,3.5,-,N/A,,Clear,190,2013-03-15 04:53:00
10:53 PM,52.0,36.0,54,30.22,10.0,SSW,3.5,-,N/A,,Clear,210,2013-03-15 05:53:00
11:53 PM,50.0,37.0,61,30.23,10.0,South,3.5,-,N/A,,Partly Cloudy,170,2013-03-15 06:53:00